Terminal Aerodrome Forecast
Issued by NWS

Home | Current Version | Previous Version | Text Only | Print | Product List | Glossary On
Versions: 1 2 3 4 5 6 7 8 9 10 11 12 13 14 15 16 17
000
FTUS44 KTSA 230906 AAA
TAFFYV
TAF AMD
KFYV 230906Z 2309/2406 00000KT 3SM BR SCT002
      TEMPO 2309/2312 1/2SM FG VV002
     FM231300 16005KT P6SM FEW035 BKN150
     FM231800 17008KT P6SM VCTS SCT040CB BKN120
     FM240100 00000KT P6SM BKN120=

USA.gov is the U.S. government's official web portal to all federal, state and local government web resources and services.